This is the latest recevied weather packets stored in our database for station/object KB2AHZ. If no packets are shown the sender has not sent any weather packets the latest 10 day(s).
| Time | Temp. | Humidity | Pressure | Rain* | Wind** | Luminosity | Snow |
|---|---|---|---|---|---|---|---|
| 1777653812 | 17.78° C | 46% | 1016.1 hPa | 0 mm | - | 507 W/m² | - |
| 1777653507 | 17.22° C | 46% | 1016 hPa | 0 mm | - | 607 W/m² | - |
| 1777653204 | 17.22° C | 53% | 1016 hPa | 0 mm | - | 519 W/m² | - |
| 1777652901 | 17.22° C | 49% | 1016.2 hPa | 0 mm | - | 569 W/m² | - |
| 1777652598 | 17.22° C | 48% | 1016 hPa | 0 mm | - | 575 W/m² | - |
| 1777652294 | 17.78° C | 48% | 1016.2 hPa | 0 mm | - | 713 W/m² | - |
| 1777651991 | 17.22° C | 49% | 1016.1 hPa | 0 mm | - | 891 W/m² | - |
| 1777651688 | 16.67° C | 48% | 1016.3 hPa | 0 mm | - | 919 W/m² | - |
| 1777651384 | 16.67° C | 49% | 1016.3 hPa | 0 mm | - | 931 W/m² | - |
| 1777651083 | 16.67° C | 48% | 1016.4 hPa | 0 mm | - | 902 W/m² | - |
| 1777650778 | 16.11° C | 49% | 1016.6 hPa | 0 mm | - | 898 W/m² | - |
| 1777650475 | 16.67° C | 48% | 1016.5 hPa | 0 mm | - | 917 W/m² | - |
| 1777650173 | 15.56° C | 51% | 1016.8 hPa | 0 mm | - | 751 W/m² | - |
| 1777649870 | 15.56° C | 52% | 1016.6 hPa | 0 mm | - | 417 W/m² | - |
| 1777649568 | 15.56° C | 51% | 1016.5 hPa | 0 mm | - | 483 W/m² | - |
| 1777649263 | 15.56° C | 51% | 1016.8 hPa | 0 mm | - | 702 W/m² | - |
| 1777648961 | 15.56° C | 50% | 1016.8 hPa | 0 mm | - | 681 W/m² | - |
| 1777648658 | 15.56° C | 50% | 1016.7 hPa | 0 mm | - | 827 W/m² | - |
| 1777648354 | 15.56° C | 52% | 1016.8 hPa | 0 mm | - | 743 W/m² | - |
| 1777648050 | 15.56° C | 52% | 1016.8 hPa | 0 mm | - | 786 W/m² | - |
| 1777647747 | 15.56° C | 54% | 1016.8 hPa | 0 mm | - | 707 W/m² | - |
| 1777647443 | 15° C | 50% | 1017.1 hPa | 0 mm | - | 658 W/m² | - |
| 1777647141 | 15° C | 52% | 1017 hPa | 0 mm | - | 680 W/m² | - |
| 1777646837 | 15° C | 54% | 1016.9 hPa | 0 mm | - | 589 W/m² | - |
| 1777646533 | 15° C | 55% | 1016.9 hPa | 0 mm | - | 637 W/m² | - |
* Rain latest hour (hover to see other rain measurements)
** Current wind speed in m/s (hover to see current wind gust speed)